Theta_e
348 344 348 350 349 348 350 350 348 347 343 342 342 347 346 348 349 348 344 348 351 350 349 350 350 350 348 347 348 348 349 348 346 345 347 351 344 344 349 347 344 345 344
349 345 349 350 350 350 351 351 350 349 345 341 342 341 346 349 350 349 349 349 351 351 351 352 351 349 351 347 348 349 347 349 348 350 347 348 346 348 347 345 345 344 344
342 349 348 350 351 350 351 352 351 350 348 350 350 347 343 344 349 350 349 349 350 351 351 352 351 351 351 349 350 349 349 349 349 347 348 349 350 348 344 344 344 345 345
342 348 351 347 344 345 348 351 352 351 349 348 348 348 349 346 346 347 350 344 349 351 352 352 351 350 350 351 350 350 349 350 348 349 347 348 348 349 348 345 344 345 345
342 345 350 341 344 344 342 346 348 346 345 344 348 347 343 348 347 350 350 349 345 347 350 349 350 350 350 348 348 347 349 350 349 348 347 348 348 349 350 348 345 345 345
341 341 347 341 340 341 342 342 343 344 345 344 348 350 350 350 347 344 345 350 349 345 347 349 348 341 340 342 343 342 344 347 350 349 347 347 349 349 349 348 347 345 344
341 341 341 341 342 343 343 343 342 343 345 343 342 347 348 350 348 345 341 340 346 349 350 349 349 347 348 350 348 342 341 344 344 346 348 348 348 349 347 346 346 345 344
344 345 347 347 345 349 346 346 346 346 346 346 346 346 347 348 347 343 343 345 344 346 348 349 349 342 347 350 350 351 349 348 344 343 344 343 345 349 348 346 345 347 346
350 351 350 349 349 349 346 346 345 345 346 346 346 347 345 345 343 342 344 345 347 349 348 349 349 349 345 344 343 346 350 350 349 348 345 345 345 345 345 346 346 345 347
349 347 344 340 345 345 345 345 344 343 343 344 346 346 343 341 340 340 343 345 345 347 349 348 346 345 345 343 343 343 346 350 350 350 349 344 343 344 345 345 344 345 344
343 339 337 338 340 342 342 342 341 342 342 342 341 342 343 344 346 341 341 343 346 349 349 349 351 350 348 345 345 346 347 348 348 346 345 346 348 343 344 344 344 343 342
336 335 337 337 339 342 337 341 342 341 338 336 336 337 339 339 340 340 340 341 343 344 344 346 348 349 346 345 345 345 344 345 345 346 346 345 344 344 344 343 342 341 342
338 345 346 345 343 340 338 342 341 339 340 338 336 337 338 343 341 341 341 342 342 343 343 341 340 341 341 341 340 341 341 343 342 340 342 343 342 344 345 344 343 343 342
346 347 347 345 344 342 342 339 337 336 336 336 339 340 340 340 340 340 342 342 343 342 339 336 336 336 338 339 339 340 341 341 342 343 343 344 345 345 343 340 337 340 336
342 343 343 342 341 340 339 338 336 336 333 336 338 336 335 337 338 335 334 335 339 340 340 340 340 340 339 338 337 337 337 340 342 343 344 344 343 340 336 332 330 331 331
339 339 338 337 336 336 336 336 336 334 332 331 333 333 335 333 333 331 330 329 332 338 338 337 335 336 336 336 337 339 341 342 343 342 341 338 335 332 329 326 327 326 324
337 336 335 336 333 334 334 334 333 334 333 331 330 329 330 330 330 331 332 335 334 336 336 334 335 335 336 337 338 338 338 337 337 334 333 332 329 327 326 324 323 321 319
334 327 331 333 332 332 331 332 334 333 333 333 332 330 330 330 330 328 329 332 333 334 333 333 333 334 335 336 336 335 334 333 331 329 328 327 325 323 321 320 318 315 314
334 333 332 331 331 331 333 333 333 332 330 331 330 329 329 329 329 330 332 332 332 333 333 332 332 333 333 333 333 331 330 328 326 325 324 322 321 317 316 315 315 315 316
332 328 321 328 330 331 332 331 331 331 330 329 329 328 328 329 330 331 332 332 332 332 332 331 331 330 330 329 328 327 325 324 323 322 321 318 316 316 316 315 315 315 316
330 329 328 328 330 331 331 330 330 331 330 327 327 327 327 328 328 328 329 330 330 330 329 329 328 327 326 325 324 323 322 322 320 318 317 316 318 318 316 317 317 316 315
328 328 327 327 329 329 331 328 329 330 329 326 326 326 327 327 327 328 328 328 327 327 326 326 325 325 324 323 321 319 318 316 314 315 316 317 318 319 319 317 317 314 312
327 325 323 323 325 325 327 327 330 328 327 326 325 326 327 327 327 325 324 324 324 322 322 321 321 319 318 317 316 314 314 316 316 316 316 316 317 317 317 315 314 313 313
325 322 322 326 326 325 325 329 327 330 326 326 325 326 327 327 327 326 326 324 322 321 319 319 317 317 314 316 317 317 317 316 315 314 314 315 315 315 314 314 313 313 313
326 325 321 327 328 325 324 327 327 329 326 326 326 328 327 326 326 325 324 323 322 320 319 318 317 317 317 317 315 315 314 313 314 313 313 313 313 314 314 314 314 313 313
327 326 325 327 327 326 326 326 327 327 325 326 328 327 326 325 322 321 321 321 320 319 318 318 317 317 316 314 314 310 309 309 311 313 314 314 314 314 313 313 313 313 313
Wind_Speed
20 21 18 17 17 17 15 14 14 15 15 15 17 16 17 15 14 14 14 13 11 11 10 11 11 12 11 10 10 10 10 9 10 7 8 10 9 11 13 8 10 9 11
18 19 18 18 18 17 17 16 14 15 15 16 17 17 16 15 15 16 15 13 13 13 12 14 12 11 13 14 12 12 12 11 10 9 8 9 10 11 13 11 12 12 14
16 17 18 17 19 20 18 18 16 16 17 15 15 15 17 18 16 15 16 16 16 15 15 15 14 14 14 12 13 12 14 13 14 12 11 9 8 9 11 13 14 14 13
19 18 17 18 20 21 18 17 18 17 17 17 18 18 17 18 19 19 17 18 16 15 15 15 14 15 14 13 12 13 15 13 14 13 13 13 12 11 11 11 14 15 14
15 16 17 18 19 19 19 18 18 18 19 19 20 20 22 20 20 19 21 19 19 18 17 17 16 16 18 17 13 14 16 16 15 15 15 15 15 15 11 13 13 14 15
20 13 15 17 16 12 11 14 19 19 20 21 20 20 21 21 22 26 26 19 19 21 20 18 18 22 22 21 21 20 20 18 17 18 16 17 17 16 15 15 16 16 18
23 17 18 19 17 17 16 17 18 21 19 21 19 19 21 21 23 26 24 26 24 22 22 20 20 19 20 20 20 21 23 24 24 23 22 21 21 19 18 18 19 18 14
19 18 18 17 17 15 15 16 18 18 17 17 17 17 17 19 25 24 24 25 26 26 25 24 24 25 24 22 19 20 21 21 25 26 28 27 25 21 21 19 20 19 19
12 12 12 12 11 11 11 11 11 12 13 14 16 18 19 20 24 26 26 27 23 24 25 25 25 25 26 24 23 24 22 22 22 27 28 27 27 24 24 20 19 22 25
11 10 9 8 8 7 8 9 9 11 12 13 14 15 17 19 19 21 26 26 22 22 21 24 27 28 27 25 25 26 27 25 24 24 27 26 27 30 29 29 27 28 26
10 10 9 6 6 5 5 6 6 8 10 13 15 17 18 17 16 17 21 26 23 21 21 21 20 23 27 26 29 29 27 25 27 27 27 26 20 28 32 30 30 32 32
10 10 9 8 6 6 7 7 7 9 12 13 14 15 16 18 18 19 18 21 23 25 22 19 19 23 25 24 25 25 25 26 27 30 30 28 30 36 35 34 35 35 35
12 11 10 10 10 12 13 11 12 13 12 13 13 13 14 11 13 14 18 20 22 23 24 25 25 24 24 25 25 27 30 31 32 32 31 31 32 36 35 35 33 31 30
10 11 11 12 12 13 11 13 14 13 13 13 13 11 12 11 12 13 15 17 20 23 24 25 26 29 30 32 31 29 29 30 30 30 28 28 27 28 26 26 28 29 18
7 8 10 9 12 11 12 13 11 11 10 12 11 11 12 13 12 16 19 22 22 21 23 22 22 23 23 23 23 24 23 22 22 25 25 23 24 22 19 19 20 22 26
4 5 7 8 10 11 12 12 15 15 13 14 15 16 15 20 20 22 24 23 23 21 21 20 16 17 19 20 19 18 17 15 15 17 20 18 12 13 13 19 26 35 37
5 7 8 10 9 11 12 12 12 14 15 14 15 18 19 18 20 24 25 20 19 18 19 16 17 17 16 15 14 10 9 7 7 8 13 15 17 17 21 27 28 29 29
4 8 8 9 9 10 11 11 11 11 12 11 16 15 18 20 21 17 11 10 10 12 13 14 15 14 12 11 9 7 6 7 8 14 16 19 21 28 33 33 29 26 25
3 4 7 8 9 10 8 9 11 11 12 11 14 18 15 11 8 6 6 8 9 11 10 11 11 10 8 8 7 7 9 12 14 16 22 29 33 34 31 29 30 22 17
3 8 8 8 9 10 10 9 11 10 11 11 9 11 9 7 5 5 6 7 7 7 6 4 3 4 4 4 5 7 11 15 20 27 32 32 29 26 27 26 20 17 15
4 5 12 10 10 11 12 10 11 10 9 9 10 9 8 6 5 4 4 4 5 4 4 5 6 7 8 11 14 18 22 26 31 33 30 27 25 22 21 15 17 15 15
7 8 9 11 13 16 13 13 11 9 8 7 6 4 3 3 4 5 6 8 10 14 16 18 20 20 22 25 26 28 30 30 29 26 22 19 16 14 15 16 14 12 12
9 11 14 13 15 15 16 13 11 10 6 5 4 4 6 7 10 12 12 16 16 17 16 18 21 23 22 20 21 24 24 19 17 14 13 14 14 15 16 16 15 14 12
11 14 14 13 18 16 15 15 13 12 8 9 8 10 9 10 11 12 12 13 14 17 18 17 17 17 19 16 14 11 11 12 11 12 12 13 14 15 15 15 13 13 14
11 15 17 9 13 14 12 13 14 12 11 14 11 12 12 11 11 11 11 11 12 12 12 12 12 13 12 12 12 13 14 17 14 15 13 14 13 14 14 13 12 13 13
11 12 12 9 9 9 10 12 15 12 15 17 14 14 13 12 12 12 12 11 11 11 11 11 11 12 13 12 13 16 18 17 18 16 12 12 13 12 12 11 12 11 12
Wind_Direction
211 219 217 219 222 227 230 238 240 239 239 239 240 243 244 239 240 241 240 231 239 244 242 246 260 258 247 245 250 240 244 242 254 260 259 256 245 230 249 249 267 249 268
211 219 222 222 223 226 230 233 238 235 237 244 248 247 241 238 237 244 242 237 245 243 248 252 256 254 248 237 240 247 253 248 243 264 261 260 252 252 253 266 262 257 267
219 214 218 220 224 228 231 237 233 236 235 237 244 242 240 240 240 239 243 247 248 246 248 247 248 246 247 238 246 250 253 249 252 247 254 253 244 244 257 263 264 262 265
226 213 215 222 231 231 230 233 232 233 235 239 244 245 243 244 242 244 245 248 248 249 252 247 247 246 247 248 250 249 252 246 249 249 251 256 255 253 252 265 262 261 261
212 217 215 222 228 237 238 230 231 234 238 240 243 247 249 246 245 244 246 250 254 254 246 248 248 246 243 248 248 259 242 245 241 249 256 257 260 251 242 261 266 259 257
206 203 201 204 205 207 217 229 238 237 238 243 244 245 244 244 246 245 240 246 251 255 253 252 252 247 252 252 257 258 258 252 248 246 249 257 257 255 256 251 250 245 243
203 207 209 214 226 232 237 232 241 246 246 253 253 243 244 243 241 248 250 249 247 249 249 252 253 249 256 252 257 257 255 254 255 252 252 253 255 256 255 253 251 263 249
204 215 220 224 232 231 233 236 239 243 244 243 248 248 249 251 249 245 245 246 249 249 248 251 252 254 248 247 251 252 255 256 256 254 258 263 266 262 252 251 256 254 238
186 193 200 205 211 219 224 229 233 239 245 248 254 256 255 257 258 246 242 247 249 251 250 250 249 250 255 255 257 257 255 253 258 264 261 258 264 266 264 255 247 241 241
179 185 187 185 190 205 223 232 241 248 254 255 258 253 260 265 264 254 241 241 251 252 258 261 254 251 257 263 262 260 260 258 259 252 263 264 260 261 258 257 253 248 252
171 175 179 184 188 204 220 229 247 261 258 254 252 253 256 260 262 261 242 243 243 254 252 250 250 263 263 262 264 258 258 259 259 261 262 261 261 261 261 258 250 255 257
191 196 207 221 223 241 257 258 266 278 280 274 273 270 271 267 263 261 246 247 243 247 253 254 251 252 262 262 262 264 266 266 265 264 264 267 271 277 269 262 256 253 251
212 215 224 232 244 253 263 269 281 287 284 274 268 264 263 268 275 265 255 250 248 251 258 261 263 265 264 268 270 268 266 264 267 266 268 267 268 267 265 260 254 250 259
224 222 227 236 246 252 263 278 283 281 270 264 257 258 259 262 268 269 270 260 257 258 261 264 267 268 268 273 276 272 269 270 270 267 264 263 266 265 256 246 244 231 239
221 226 232 245 260 260 277 270 272 278 265 249 263 263 273 272 270 270 271 269 265 264 269 270 274 276 274 273 275 278 276 272 269 260 256 255 255 254 250 237 216 195 179
217 243 244 245 262 270 272 277 289 291 284 268 266 270 267 276 275 280 280 272 265 263 264 270 273 270 275 277 279 280 269 267 264 255 248 244 234 213 201 184 177 161 147
226 243 260 271 270 277 281 272 277 288 293 292 278 279 282 278 284 284 282 268 255 251 257 269 271 272 271 267 269 273 275 269 258 239 225 200 179 173 170 159 146 136 132
249 263 266 271 270 270 270 274 269 278 277 288 291 297 290 288 287 281 271 255 239 243 255 262 269 265 257 255 256 260 242 221 203 191 186 173 162 152 143 139 135 131 128
269 285 284 283 282 272 265 271 272 271 282 284 291 296 292 289 280 263 235 229 231 245 251 264 258 246 242 239 238 216 197 184 178 168 158 151 145 138 133 132 135 136 140
272 294 293 281 283 282 274 276 275 277 276 291 286 287 283 277 258 230 218 222 225 232 235 240 209 189 181 187 174 165 161 157 152 148 142 137 134 136 140 143 138 144 147
286 291 300 289 272 271 267 262 271 269 273 276 282 275 268 260 248 232 213 209 194 173 165 161 149 143 138 135 135 136 136 134 135 137 139 139 141 145 148 144 148 154 148
300 300 295 288 282 281 262 264 253 262 262 273 270 263 250 229 196 174 158 137 125 122 116 115 115 116 123 129 133 137 139 139 140 140 143 146 141 148 157 159 155 155 156
298 301 305 294 275 264 252 256 237 254 248 227 195 156 125 122 126 127 127 131 126 127 127 127 127 127 130 132 133 135 135 137 139 140 146 152 154 156 157 157 157 152 152
291 302 298 281 282 287 249 236 239 236 221 197 179 150 139 132 131 131 130 130 128 128 130 127 131 135 134 134 138 140 151 157 158 153 154 157 157 159 160 159 160 161 162
290 299 309 299 291 295 233 224 241 240 208 179 169 165 155 146 143 144 144 143 146 143 143 147 147 156 156 155 156 171 177 162 149 151 150 153 157 157 160 166 171 174 173
297 295 288 276 290 275 249 232 242 232 194 170 176 172 164 156 156 154 153 156 157 160 159 160 168 165 163 160 162 163 158 158 153 145 153 155 157 159 167 174 176 179 184